Temp
85 83 87 87 92 92 91 92 92 90 90 89 89 88 87 85 90 88 88 86 85 91
85 85 89 88 88 91 91 93 90 89 89 89 89 88 88 84 87 88 87 87 87 88
85 85 87 87 86 88 90 90 89 89 88 89 88 88 86 89 89 87 90 92 87 85
88 89 88 88 87 87 88 88 88 87 87 88 89 88 85 86 87 86 86 88 87 86
88 88 88 88 88 88 87 88 88 88 88 88 88 88 86 87 90 87 87 87 86 85
88 88 88 88 88 88 87 87 88 87 87 87 87 88 88 87 88 88 89 88 87 87
87 87 87 88 86 87 87 85 86 86 87 87 88 88 89 89 87 87 89 89 89 88
86 87 86 86 84 87 87 87 86 86 87 88 88 91 88 88 87 86 86 88 89 89
85 84 84 85 85 85 85 85 85 85 86 86 90 78 73 79 88 87 86 86 88 89
84 83 83 84 84 84 84 85 85 85 86 85 87 71 70 70 83 86 87 85 86 88
85 84 84 83 83 83 84 83 84 85 85 85 87 64 65 68 81 84 85 85 86 85
85 85 84 83 83 84 84 84 84 85 85 85 79 60 61 67 85 85 84 84 84 84
86 85 84 84 84 85 85 85 89 87 86 75 74 58 58 66 85 82 84 83 82 70
86 85 86 85 85 85 85 87 84 83 80 81 77 69 56 57 79 81 81 82 83 84
MSLP
1013.58 1013.91 1013.96 1014.25 1013.64 1013.85 1014.06 1014.32 1014.71 1015.36 1015.53 1015.83 1016.09 1016.25 1016.36 1016.74 1016.37 1016.40 1016.55 1016.59 1016.64 1015.86
1012.88 1013.42 1013.34 1013.69 1014.13 1013.84 1013.85 1013.93 1014.72 1015.10 1015.34 1015.45 1015.65 1015.82 1016.04 1016.21 1016.15 1016.16 1016.35 1016.18 1016.34 1016.33
1012.47 1013.15 1013.45 1013.72 1013.97 1013.75 1013.77 1014.20 1014.48 1014.78 1015.18 1015.36 1015.45 1015.51 1015.71 1015.67 1015.67 1015.89 1015.81 1015.55 1016.01 1016.27
1011.81 1012.33 1012.91 1013.13 1013.51 1013.81 1013.96 1014.05 1014.27 1014.65 1014.92 1014.89 1015.05 1015.24 1015.40 1015.42 1015.41 1015.50 1015.70 1015.62 1015.73 1015.80
1011.45 1011.85 1012.18 1012.57 1012.92 1013.32 1013.63 1013.88 1014.10 1014.29 1014.47 1014.57 1014.78 1014.96 1015.16 1015.06 1014.79 1015.14 1015.16 1015.23 1015.40 1015.55
1010.97 1011.35 1011.66 1012.03 1012.54 1012.92 1013.32 1013.59 1013.77 1013.97 1014.14 1014.27 1014.54 1014.65 1014.75 1014.82 1014.67 1014.70 1014.65 1014.70 1014.79 1014.78
1010.40 1010.83 1011.24 1011.58 1012.23 1012.66 1012.98 1013.29 1013.51 1013.74 1013.91 1014.06 1014.14 1014.25 1014.30 1014.27 1014.38 1014.33 1014.14 1014.21 1014.23 1014.28
1009.98 1010.44 1010.90 1011.27 1011.95 1012.11 1012.56 1012.86 1013.14 1013.40 1013.57 1013.66 1013.69 1013.65 1013.77 1013.81 1013.75 1013.84 1013.77 1013.67 1013.66 1013.60
1009.66 1010.19 1010.51 1010.85 1011.31 1011.70 1012.08 1012.40 1012.60 1012.81 1013.00 1013.19 1013.21 1013.14 1013.58 1013.89 1013.52 1013.48 1013.40 1013.20 1013.07 1013.04
1009.44 1009.77 1010.31 1010.65 1010.97 1011.28 1011.63 1011.94 1012.26 1012.55 1012.77 1012.92 1013.06 1013.25 1013.58 1013.96 1013.98 1013.40 1013.00 1013.01 1012.93 1012.82
1009.13 1009.40 1009.75 1010.15 1010.35 1010.63 1011.00 1011.35 1011.70 1011.98 1012.24 1012.48 1012.73 1013.73 1013.94 1014.05 1013.82 1013.38 1013.13 1012.90 1012.71 1012.61
1008.34 1008.88 1009.37 1009.80 1010.01 1010.29 1010.62 1010.88 1011.11 1011.38 1011.58 1011.91 1012.92 1013.78 1013.96 1013.79 1012.91 1012.63 1012.76 1012.77 1012.78 1012.82
1007.66 1008.10 1008.43 1009.04 1009.50 1009.74 1009.98 1010.22 1010.61 1010.99 1011.16 1011.73 1012.71 1013.45 1013.72 1013.62 1012.94 1012.55 1012.34 1012.53 1012.48 1012.66
1007.03 1007.63 1007.93 1008.28 1008.76 1009.26 1009.58 1009.61 1010.16 1010.82 1011.97 1012.15 1012.85 1014.17 1014.49 1014.19 1013.34 1012.89 1012.58 1012.34 1012.17 1012.24
Wind_Speed
12 7 8 10 10 9 10 9 6 7 7 7 7 7 6 5 6 5 5 7 6 6
11 11 9 8 10 8 6 5 6 7 8 8 7 8 7 5 8 5 5 5 5 6
12 12 10 10 11 11 9 8 6 9 8 8 7 8 8 6 7 6 6 6 5 5
12 13 13 12 11 11 10 10 9 7 7 8 8 6 6 5 3 4 5 5 5 7
12 12 13 12 12 13 12 11 9 9 8 7 7 6 6 6 4 5 7 7 6 8
12 13 13 13 13 12 11 11 10 10 10 9 8 7 7 7 8 8 8 8 9 9
12 13 12 13 12 12 12 11 11 10 9 10 9 9 9 9 10 10 10 10 10 10
12 12 11 12 12 12 12 12 11 11 11 11 10 10 11 12 11 11 11 11 11 12
11 11 11 10 11 11 11 12 13 13 13 12 10 8 8 9 9 11 11 11 11 12
11 11 11 12 12 12 12 12 13 12 11 11 11 3 6 5 10 11 11 11 11 11
11 11 12 13 13 13 12 12 12 11 11 11 6 4 3 2 8 10 11 11 11 12
13 12 11 12 12 11 11 11 12 11 11 10 5 5 2 4 6 7 8 9 10 12
13 14 14 14 13 12 11 11 9 10 9 3 7 6 2 3 6 6 7 8 10 10
14 13 13 13 12 12 11 9 9 7 4 5 4 4 2 3 4 5 6 8 9 8
Wind_Direction
204 199 205 201 208 201 194 201 171 195 230 235 251 234 231 241 255 226 240 242 239 268
197 217 207 197 211 211 206 204 200 212 219 222 231 239 239 224 228 236 234 234 243 256
199 197 207 200 208 214 204 215 208 214 212 220 225 244 235 225 192 224 239 231 204 235
203 199 200 206 204 216 219 217 220 222 226 228 227 231 229 242 246 243 239 265 242 246
198 205 203 210 205 207 217 220 224 225 232 230 228 224 231 243 277 229 238 240 252 246
202 201 209 208 213 210 212 222 221 221 226 227 230 223 226 237 243 249 253 259 255 260
203 208 213 211 208 209 213 218 222 225 229 231 233 236 246 241 241 250 255 253 250 249
201 206 209 205 208 207 212 215 220 224 230 234 237 240 232 241 244 247 251 249 247 244
197 203 209 206 203 204 210 215 218 226 232 240 247 236 218 260 261 254 255 259 255 255
197 194 199 197 198 203 209 215 220 227 233 239 242 181 192 194 257 268 262 262 268 272
197 198 194 197 198 198 203 209 213 219 222 230 231 57 38 287 255 258 268 272 272 271
193 196 195 202 200 199 202 204 208 214 216 224 146 87 69 274 255 267 284 288 290 290
195 195 189 195 201 201 201 204 214 214 217 202 155 145 97 325 279 274 283 288 267 233
196 202 198 192 194 197 203 207 203 201 195 200 166 119 9 341 268 303 308 303 300 299